DLH9WE EDDM-LDDU

Flight info

Callsign DLH9WE
Flight time 1h 9m
Altitude 37000
Route VAVOR3E VAVOR M867 RADIZ DCT GIMIX DCT ALIVO DCT SIPAL
Aircraft A321/M-SDE2E3FGIJ1LORWXYZ/HB1

Departure

Time 2026-05-04 14:15
Airport Munich Airport (EDDM)

Arrival

Time 2026-05-04 15:25
Airport Dubrovnik Ruđer Bošković Airport (LDDU)
Time Latitude Longitude Altitude Speed Heading
2026-05-04 13:25 48.35656 11.79705 1473 ft 0 kts 83°
2026-05-04 14:00 48.35656 11.79696 1473 ft 2 kts 83°
2026-05-04 14:00 48.35654 11.79673 1473 ft 2 kts 83°
2026-05-04 14:01 48.35652 11.79651 1474 ft 2 kts 83°
2026-05-04 14:01 48.35650 11.79629 1474 ft 2 kts 83°
2026-05-04 14:01 48.35650 11.79584 1474 ft 2 kts 114°
2026-05-04 14:02 48.35658 11.79565 1474 ft 2 kts 136°
2026-05-04 14:02 48.35670 11.79553 1474 ft 2 kts 160°
2026-05-04 14:02 48.35679 11.79549 1474 ft 1 kts 174°
2026-05-04 14:02 48.35684 11.79549 1474 ft 0 kts 174°
2026-05-04 14:05 48.35580 11.79568 1475 ft 16 kts 173°
2026-05-04 14:05 48.35470 11.79588 1475 ft 15 kts 173°
2026-05-04 14:05 48.35370 11.79606 1476 ft 14 kts 176°
2026-05-04 14:06 48.35275 11.79621 1476 ft 13 kts 173°
2026-05-04 14:06 48.35187 11.79637 1476 ft 12 kts 173°
2026-05-04 14:06 48.35102 11.79653 1477 ft 12 kts 174°
2026-05-04 14:06 48.35013 11.79662 1477 ft 11 kts 194°
2026-05-04 14:07 48.34978 11.79570 1478 ft 10 kts 251°
2026-05-04 14:07 48.34919 11.79549 1478 ft 12 kts 173°
2026-05-04 14:07 48.34820 11.79561 1478 ft 13 kts 191°
2026-05-04 14:07 48.34782 11.79448 1479 ft 12 kts 264°
2026-05-04 14:08 48.34768 11.79270 1479 ft 20 kts 264°
2026-05-04 14:08 48.34752 11.79068 1480 ft 18 kts 264°
2026-05-04 14:08 48.34738 11.78881 1481 ft 17 kts 263°
2026-05-04 14:08 48.34724 11.78713 1482 ft 15 kts 263°
2026-05-04 14:09 48.34697 11.78338 1483 ft 21 kts 263°
2026-05-04 14:09 48.34680 11.78124 1484 ft 19 kts 263°
2026-05-04 14:10 48.34649 11.77718 1484 ft 23 kts 264°
2026-05-04 14:10 48.34629 11.77464 1485 ft 26 kts 263°
2026-05-04 14:10 48.34609 11.77208 1486 ft 23 kts 265°
2026-05-04 14:10 48.34592 11.76976 1486 ft 21 kts 264°
2026-05-04 14:11 48.34575 11.76763 1487 ft 19 kts 263°
2026-05-04 14:11 48.34547 11.76391 1488 ft 16 kts 263°
2026-05-04 14:11 48.34533 11.76224 1488 ft 15 kts 263°
2026-05-04 14:12 48.34520 11.76056 1489 ft 18 kts 264°
2026-05-04 14:12 48.34506 11.75873 1489 ft 17 kts 263°
2026-05-04 14:12 48.34480 11.75518 1490 ft 22 kts 265°
2026-05-04 14:13 48.34464 11.75308 1490 ft 16 kts 263°
2026-05-04 14:13 48.34409 11.75219 1491 ft 12 kts 174°
2026-05-04 14:13 48.34324 11.75235 1491 ft 11 kts 173°
2026-05-04 14:13 48.34227 11.75252 1492 ft 19 kts 174°
2026-05-04 14:14 48.34110 11.75272 1492 ft 10 kts 173°
2026-05-04 14:14 48.34090 11.75391 1492 ft 16 kts 83°
2026-05-04 14:14 48.34134 11.75961 1491 ft 92 kts 84°
2026-05-04 14:15 48.34372 11.78929 1983 ft 163 kts 82°
2026-05-04 14:15 48.34640 11.82208 3388 ft 155 kts 82°
2026-05-04 14:16 48.34890 11.85700 3954 ft 182 kts 83°
2026-05-04 14:16 48.35034 11.87676 4252 ft 197 kts 83°
2026-05-04 14:17 48.34859 11.92049 4742 ft 238 kts 122°
2026-05-04 14:17 48.33552 11.93646 5176 ft 253 kts 156°
2026-05-04 14:17 48.30027 11.95265 6285 ft 276 kts 163°
2026-05-04 14:18 48.28184 11.96118 7116 ft 278 kts 161°
2026-05-04 14:18 48.24549 11.98001 8824 ft 279 kts 160°
2026-05-04 14:19 48.20915 12.00007 10460 ft 281 kts 160°
2026-05-04 14:19 48.19077 12.01036 11192 ft 285 kts 160°
2026-05-04 14:19 48.17205 12.02089 11900 ft 289 kts 160°
2026-05-04 14:19 48.15330 12.03148 12581 ft 292 kts 160°
2026-05-04 14:20 48.13414 12.04232 13259 ft 296 kts 160°
2026-05-04 14:20 48.11493 12.05319 13931 ft 299 kts 160°
2026-05-04 14:20 48.09539 12.06426 14577 ft 303 kts 160°
2026-05-04 14:21 48.05566 12.08670 15822 ft 310 kts 161°
2026-05-04 14:21 48.03538 12.09812 16427 ft 315 kts 161°
2026-05-04 14:21 48.01492 12.10966 17011 ft 318 kts 161°
2026-05-04 14:21 47.99404 12.12141 17619 ft 322 kts 161°
2026-05-04 14:22 47.97309 12.13322 18204 ft 326 kts 162°
2026-05-04 14:22 47.95183 12.14556 18775 ft 330 kts 158°
2026-05-04 14:22 47.93105 12.16183 19087 ft 345 kts 150°
2026-05-04 14:22 47.91143 12.18307 19326 ft 360 kts 143°
2026-05-04 14:23 47.87163 12.23305 19813 ft 386 kts 141°
2026-05-04 14:23 47.85107 12.25903 20218 ft 393 kts 141°
2026-05-04 14:23 47.83007 12.28551 20741 ft 396 kts 141°
2026-05-04 14:24 47.80909 12.31190 21285 ft 399 kts 141°
2026-05-04 14:24 47.78772 12.33868 21775 ft 402 kts 141°
2026-05-04 14:24 47.76622 12.36557 22282 ft 405 kts 141°
2026-05-04 14:24 47.74480 12.39233 22754 ft 408 kts 141°
2026-05-04 14:25 47.72282 12.41974 23227 ft 411 kts 141°
2026-05-04 14:25 47.67888 12.47415 24132 ft 417 kts 142°
2026-05-04 14:25 47.65637 12.50188 24569 ft 420 kts 142°
2026-05-04 14:26 47.63388 12.52950 24988 ft 423 kts 142°
2026-05-04 14:26 47.61052 12.55612 25386 ft 426 kts 145°
2026-05-04 14:26 47.58666 12.58224 25779 ft 429 kts 145°
2026-05-04 14:26 47.56242 12.60869 26173 ft 431 kts 145°
2026-05-04 14:27 47.53809 12.63519 26551 ft 434 kts 145°
2026-05-04 14:27 47.51531 12.66001 26893 ft 437 kts 146°
2026-05-04 14:27 47.49191 12.68556 27257 ft 439 kts 146°
2026-05-04 14:27 47.46603 12.71381 27637 ft 442 kts 146°
2026-05-04 14:28 47.44133 12.74069 27984 ft 444 kts 146°
2026-05-04 14:28 47.41624 12.76794 28320 ft 447 kts 146°
2026-05-04 14:28 47.39114 12.79514 28655 ft 449 kts 146°
2026-05-04 14:28 47.36584 12.82251 28985 ft 452 kts 146°
2026-05-04 14:29 47.31477 12.87761 29603 ft 457 kts 146°
2026-05-04 14:29 47.26331 12.93300 30309 ft 459 kts 146°
2026-05-04 14:30 47.23757 12.96066 30732 ft 458 kts 146°
2026-05-04 14:30 47.21198 12.98814 31149 ft 457 kts 146°
2026-05-04 14:30 47.16095 13.04278 32006 ft 454 kts 146°
2026-05-04 14:31 47.13532 13.07017 32405 ft 453 kts 146°
2026-05-04 14:31 47.08448 13.12441 33158 ft 451 kts 146°
2026-05-04 14:32 47.03383 13.17831 33894 ft 449 kts 146°
2026-05-04 14:32 47.00872 13.20498 34247 ft 448 kts 146°
2026-05-04 14:32 46.98518 13.22996 34573 ft 447 kts 146°
2026-05-04 14:32 46.95900 13.25772 34906 ft 446 kts 146°
2026-05-04 14:33 46.93412 13.28406 35201 ft 445 kts 146°
2026-05-04 14:33 46.90907 13.31053 35478 ft 445 kts 146°
2026-05-04 14:33 46.88446 13.33649 35709 ft 445 kts 146°
2026-05-04 14:33 46.85958 13.36257 35905 ft 446 kts 146°
2026-05-04 14:34 46.83488 13.38846 36101 ft 447 kts 146°
2026-05-04 14:34 46.80960 13.41497 36298 ft 448 kts 146°
2026-05-04 14:34 46.78401 13.44183 36495 ft 449 kts 146°
2026-05-04 14:34 46.75905 13.46801 36672 ft 450 kts 146°
2026-05-04 14:35 46.73399 13.49427 36875 ft 450 kts 146°
2026-05-04 14:35 46.70831 13.52118 37095 ft 451 kts 146°
2026-05-04 14:35 46.68303 13.54763 37167 ft 453 kts 146°
2026-05-04 14:36 46.63217 13.60074 37175 ft 454 kts 146°
2026-05-04 14:36 46.58162 13.65342 37172 ft 454 kts 146°
2026-05-04 14:37 46.53045 13.70685 37163 ft 454 kts 146°
2026-05-04 14:37 46.47947 13.76028 37163 ft 455 kts 146°
2026-05-04 14:38 46.42807 13.81419 37163 ft 455 kts 146°
2026-05-04 14:38 46.37726 13.86727 37164 ft 455 kts 146°
2026-05-04 14:39 46.32573 13.92093 37164 ft 455 kts 146°
2026-05-04 14:39 46.27470 13.97391 37164 ft 456 kts 146°
2026-05-04 14:40 46.19745 14.05387 37160 ft 457 kts 146°
2026-05-04 14:40 46.14612 14.10686 37155 ft 457 kts 146°
2026-05-04 14:41 46.09559 14.15890 37150 ft 457 kts 146°
2026-05-04 14:42 45.99156 14.26563 37137 ft 458 kts 146°
2026-05-04 14:42 45.94013 14.31821 37135 ft 458 kts 146°
2026-05-04 14:43 45.88839 14.37098 37139 ft 458 kts 146°
2026-05-04 14:43 45.83622 14.42378 37137 ft 459 kts 146°
2026-05-04 14:44 45.78432 14.47633 37144 ft 459 kts 146°
2026-05-04 14:44 45.73216 14.52914 37145 ft 460 kts 146°
2026-05-04 14:45 45.67987 14.58198 37142 ft 460 kts 146°
2026-05-04 14:45 45.62755 14.63474 37150 ft 461 kts 146°
2026-05-04 14:46 45.57541 14.68736 37149 ft 461 kts 146°
2026-05-04 14:46 45.52265 14.74047 37153 ft 461 kts 146°
2026-05-04 14:47 45.47111 14.79334 37148 ft 462 kts 145°
2026-05-04 14:47 45.41920 14.84684 37153 ft 462 kts 145°
2026-05-04 14:48 45.36683 14.90055 37156 ft 462 kts 145°
2026-05-04 14:48 45.31475 14.95376 37162 ft 464 kts 145°
2026-05-04 14:49 45.26236 15.00714 37170 ft 464 kts 145°
2026-05-04 14:49 45.20984 15.06052 37168 ft 464 kts 145°
2026-05-04 14:50 45.15743 15.11365 37158 ft 464 kts 145°
2026-05-04 14:50 45.10479 15.16691 37160 ft 465 kts 145°
2026-05-04 14:51 45.05220 15.21999 37156 ft 465 kts 145°
2026-05-04 14:51 44.99971 15.27286 37163 ft 466 kts 145°
2026-05-04 14:52 44.94711 15.32569 37164 ft 466 kts 145°
2026-05-04 14:52 44.89527 15.37765 37155 ft 466 kts 145°
2026-05-04 14:53 44.84182 15.43082 37156 ft 466 kts 145°
2026-05-04 14:53 44.78904 15.48331 37163 ft 467 kts 145°
2026-05-04 14:54 44.73609 15.53594 37164 ft 467 kts 145°
2026-05-04 14:54 44.68307 15.58859 37159 ft 468 kts 145°
2026-05-04 14:55 44.62993 15.64125 37159 ft 468 kts 145°
2026-05-04 14:55 44.57671 15.69409 37155 ft 468 kts 146°
2026-05-04 14:56 44.52367 15.74665 37153 ft 469 kts 146°
2026-05-04 14:56 44.47030 15.79927 37150 ft 469 kts 146°
2026-05-04 14:57 44.41684 15.85179 37159 ft 470 kts 146°
2026-05-04 14:57 44.36327 15.90428 37160 ft 470 kts 146°
2026-05-04 14:58 44.30975 15.95659 37157 ft 471 kts 146°
2026-05-04 14:58 44.25580 16.00921 37156 ft 471 kts 146°
2026-05-04 14:59 44.20224 16.06133 37160 ft 472 kts 146°
2026-05-04 14:59 44.14829 16.11369 36804 ft 472 kts 146°
2026-05-04 15:00 44.12157 16.13960 36519 ft 469 kts 146°
2026-05-04 15:00 44.09483 16.16549 36268 ft 467 kts 146°
2026-05-04 15:00 44.06816 16.19127 35997 ft 466 kts 146°
2026-05-04 15:01 44.01489 16.24269 35056 ft 467 kts 146°
2026-05-04 15:01 43.98826 16.26835 34372 ft 468 kts 146°
2026-05-04 15:01 43.96159 16.29401 33649 ft 469 kts 146°
2026-05-04 15:01 43.93467 16.31987 32933 ft 469 kts 145°
2026-05-04 15:02 43.90810 16.34536 32235 ft 469 kts 145°
2026-05-04 15:02 43.88147 16.37085 31564 ft 471 kts 145°
2026-05-04 15:02 43.85443 16.39663 30851 ft 472 kts 145°
2026-05-04 15:02 43.82735 16.42241 30137 ft 473 kts 145°
2026-05-04 15:03 43.80009 16.44839 29445 ft 473 kts 145°
2026-05-04 15:03 43.77336 16.47387 29006 ft 467 kts 144°
2026-05-04 15:03 43.74674 16.49927 28555 ft 464 kts 144°
2026-05-04 15:03 43.72030 16.52448 28096 ft 460 kts 144°
2026-05-04 15:04 43.69348 16.55002 27606 ft 456 kts 144°
2026-05-04 15:04 43.66718 16.57502 27118 ft 452 kts 144°
2026-05-04 15:04 43.64204 16.59889 26634 ft 448 kts 144°
2026-05-04 15:04 43.61645 16.62319 26147 ft 444 kts 144°
2026-05-04 15:05 43.59087 16.64743 25677 ft 439 kts 144°
2026-05-04 15:05 43.56579 16.67127 25208 ft 435 kts 145°
2026-05-04 15:05 43.54096 16.69491 24732 ft 430 kts 145°
2026-05-04 15:05 43.51653 16.71811 24259 ft 426 kts 145°
2026-05-04 15:06 43.49231 16.74105 23793 ft 422 kts 145°
2026-05-04 15:06 43.46790 16.76411 23323 ft 419 kts 145°
2026-05-04 15:06 43.44403 16.78661 22862 ft 415 kts 145°
2026-05-04 15:07 43.39667 16.83118 21919 ft 409 kts 145°
2026-05-04 15:07 43.37344 16.85300 21444 ft 405 kts 144°
2026-05-04 15:07 43.35017 16.87484 20993 ft 401 kts 144°
2026-05-04 15:07 43.32715 16.89641 20509 ft 398 kts 144°
2026-05-04 15:08 43.30455 16.91758 20053 ft 395 kts 144°
2026-05-04 15:08 43.28170 16.93896 19534 ft 391 kts 144°
2026-05-04 15:08 43.25956 16.95966 19108 ft 387 kts 144°
2026-05-04 15:08 43.23737 16.98036 18686 ft 384 kts 144°
2026-05-04 15:09 43.21528 17.00097 18201 ft 381 kts 144°
2026-05-04 15:09 43.19338 17.02138 17760 ft 378 kts 144°
2026-05-04 15:09 43.17150 17.04176 17282 ft 376 kts 144°
2026-05-04 15:10 43.13211 17.08708 16327 ft 369 kts 129°
2026-05-04 15:10 43.11690 17.11487 15890 ft 366 kts 122°
2026-05-04 15:10 43.08986 17.17249 14940 ft 361 kts 120°
2026-05-04 15:11 43.07619 17.20183 14460 ft 360 kts 120°
2026-05-04 15:11 43.06267 17.23061 13972 ft 358 kts 121°
2026-05-04 15:11 43.04926 17.25899 13495 ft 356 kts 121°
2026-05-04 15:11 43.03565 17.28769 13056 ft 354 kts 121°
2026-05-04 15:12 43.02251 17.31529 12693 ft 346 kts 120°
2026-05-04 15:12 43.00969 17.34227 12158 ft 335 kts 121°
2026-05-04 15:12 42.99728 17.36833 11811 ft 319 kts 120°
2026-05-04 15:12 42.98552 17.39298 11482 ft 304 kts 120°
2026-05-04 15:13 42.97418 17.41673 11165 ft 292 kts 120°
2026-05-04 15:13 42.96320 17.43974 10861 ft 288 kts 120°
2026-05-04 15:13 42.95235 17.46245 10541 ft 286 kts 120°
2026-05-04 15:13 42.94156 17.48504 10207 ft 283 kts 120°
2026-05-04 15:14 42.93074 17.50765 9872 ft 281 kts 120°
2026-05-04 15:14 42.92023 17.52964 9567 ft 279 kts 120°
2026-05-04 15:14 42.90952 17.55201 9251 ft 277 kts 120°
2026-05-04 15:14 42.89905 17.57385 8903 ft 275 kts 120°
2026-05-04 15:15 42.88857 17.59547 8576 ft 274 kts 121°
2026-05-04 15:15 42.87808 17.61707 8276 ft 272 kts 121°
2026-05-04 15:15 42.86766 17.63858 7963 ft 272 kts 121°
2026-05-04 15:16 42.84707 17.68139 7299 ft 270 kts 121°
2026-05-04 15:16 42.83675 17.70291 7040 ft 268 kts 121°
2026-05-04 15:16 42.81627 17.74547 6527 ft 267 kts 121°
2026-05-04 15:17 42.80603 17.76666 6277 ft 266 kts 121°
2026-05-04 15:17 42.78558 17.80897 5793 ft 265 kts 122°
2026-05-04 15:17 42.77563 17.82954 5549 ft 262 kts 122°
2026-05-04 15:18 42.76555 17.85035 5300 ft 258 kts 122°
2026-05-04 15:18 42.75392 17.86856 5064 ft 256 kts 137°
2026-05-04 15:18 42.73991 17.88362 4794 ft 254 kts 142°
2026-05-04 15:19 42.71198 17.91254 4356 ft 250 kts 141°
2026-05-04 15:19 42.69896 17.92782 4128 ft 247 kts 132°
2026-05-04 15:19 42.68064 17.96578 4033 ft 237 kts 115°
2026-05-04 15:20 42.67335 17.98597 4037 ft 235 kts 115°
2026-05-04 15:20 42.66614 18.00534 4021 ft 223 kts 116°
2026-05-04 15:20 42.65916 18.02330 3991 ft 211 kts 116°
2026-05-04 15:20 42.65223 18.04072 3809 ft 208 kts 117°
2026-05-04 15:21 42.64534 18.05786 3566 ft 207 kts 117°
2026-05-04 15:21 42.63853 18.07474 3361 ft 198 kts 117°
2026-05-04 15:21 42.62568 18.10673 2820 ft 188 kts 117°
2026-05-04 15:22 42.61962 18.12189 2555 ft 179 kts 117°
2026-05-04 15:22 42.61385 18.13632 2309 ft 170 kts 117°
2026-05-04 15:22 42.60337 18.16259 1884 ft 149 kts 117°
2026-05-04 15:23 42.59845 18.17494 1691 ft 149 kts 117°
2026-05-04 15:23 42.59356 18.18726 1501 ft 148 kts 119°
2026-05-04 15:23 42.58859 18.19969 1306 ft 149 kts 117°
2026-05-04 15:23 42.58373 18.21194 1117 ft 148 kts 119°
2026-05-04 15:24 42.57397 18.23642 740 ft 147 kts 117°
2026-05-04 15:24 42.56461 18.26009 524 ft 120 kts 118°
2026-05-04 15:25 42.56156 18.26770 524 ft 68 kts 117°
2026-05-04 15:25 42.55977 18.27223 524 ft 27 kts 119°
2026-05-04 15:25 42.55868 18.27332 519 ft 18 kts 171°
2026-05-04 15:26 42.55803 18.27192 521 ft 12 kts 298°
2026-05-04 15:26 42.55840 18.27098 524 ft 10 kts 298°
2026-05-04 15:26 42.55931 18.26868 523 ft 17 kts 298°
2026-05-04 15:27 42.55988 18.26724 523 ft 17 kts 298°
2026-05-04 15:27 42.56038 18.26533 523 ft 6 kts 216°
2026-05-04 15:28 42.56009 18.26511 523 ft 0 kts 207°